Home   Weather   Achim   Past weeks

Flag for Germany Past Weather in Achim, Lower Saxony, Germany — Yesterday and Last 2 Weeks

Now
72 °F

Passing clouds.


Feels Like: 77 °F
Forecast: 51 / 77 °F
Wind: 8 mph from Northwest

Location: Bremen Airport

Current Time: Aug 30, 2016 at 5:03:46 PM

Latest Report: Aug 30, 2016 at 4:20 PM


Visibility: N/A

Pressure: 30.27 "Hg

Humidity: 47%

Dew Point: 50 °F

Location of AchimLocation

Past Weather in Achim — Graph

°F

Achim Temperature Yesterday

Maximum temperature yesterday: 66 °F (at 10:50 AM)
Minimum temperature yesterday: 54 °F (at 10:50 PM)
Average temperature yesterday: 63 °F

High & Low Weather Summary for the Past Weeks

 TemperatureHumidityPressure
High90 °F (Aug 25, 3:20 PM)100% (Aug 16, 1:20 AM)30.33 "Hg (Aug 16, 1:20 AM)
Low45 °F (Aug 16, 4:50 AM)29% (Aug 25, 4:20 PM)29.80 "Hg (Aug 18, 4:20 PM)
Average66 °F74%30.05 "Hg
* Reported Aug 15 3:20 PM — Aug 30 3:50 PM, Achim, Weather by CustomWeather, © 2016

Note: Actual official high and low records may vary slightly from our data, if they occured in-between our weather recording intervals... More about our weather records

Advertising

Achim Weather History for the Previous 24 Hours

Scroll right to see more
 ConditionsComfort  
Time TempWeatherWind HumidityBarometerVisibility
3:50 PM
Tue, Aug 30
72 °FPassing clouds.7 mph47%30.27 "HgN/A
3:20 PM70 °FPassing clouds.7 mph50%30.30 "HgN/A
2:50 PM72 °FPassing clouds.8 mph50%30.30 "HgN/A
2:20 PM72 °FPassing clouds.8 mph50%30.30 "HgN/A
1:50 PM70 °FPassing clouds.8 mph53%30.30 "HgN/A
1:20 PM70 °FScattered clouds.8 mph53%30.30 "HgN/A
12:50 PM68 °FScattered clouds.6 mph60%30.30 "HgN/A
12:20 PM68 °FPassing clouds.7 mph56%30.30 "HgN/A
11:50 AM66 °FPassing clouds.6 mph60%30.30 "HgN/A
11:20 AM66 °FPassing clouds.5 mph64%30.30 "HgN/A
10:50 AM64 °FPassing clouds.7 mph68%30.33 "HgN/A
10:20 AM64 °FPassing clouds.6 mph73%30.30 "HgN/A
9:50 AM63 °FPassing clouds.7 mph77%30.30 "HgN/A
9:20 AM59 °FPassing clouds.3 mph88%30.30 "HgN/A
8:50 AM57 °FPassing clouds.1 mph94%30.30 "HgN/A
8:20 AM54 °FPassing clouds.1 mph100%30.30 "HgN/A
7:50 AM52 °FPassing clouds.No wind100%30.27 "HgN/A
7:20 AM50 °FFog.No wind100%30.27 "HgN/A
6:50 AM48 °FCool.No wind100%30.27 "HgN/A
6:20 AM48 °FCool.No wind100%30.27 "Hg4 mi
5:50 AM48 °FCool.No wind100%30.27 "Hg3 mi
5:20 AM50 °FCool.No wind100%30.27 "Hg5 mi
4:50 AM50 °FCool.No wind100%30.24 "HgN/A
4:20 AM50 °FCool.No wind100%30.24 "HgN/A
3:50 AM50 °FCool.2 mph100%30.24 "HgN/A
3:20 AM50 °FCool.3 mph100%30.24 "HgN/A
2:50 AM50 °FCool.2 mph100%30.24 "HgN/A
2:20 AM50 °FCool.2 mph100%30.24 "HgN/A
1:50 AM50 °FFog.2 mph100%30.24 "HgN/A
1:20 AM52 °FFog.1 mph100%30.24 "HgN/A
12:50 AM52 °FFog.2 mph100%30.24 "HgN/A
12:20 AM50 °FFog.2 mph100%30.24 "HgN/A
11:50 PM
Mon, Aug 29
54 °FFog.2 mph94%30.21 "HgN/A
11:20 PM54 °FFog.2 mph94%30.21 "HgN/A
10:50 PM54 °FClear.3 mph94%30.21 "Hg10 mi
10:20 PM55 °FClear.6 mph82%30.21 "Hg10 mi
9:50 PM57 °FClear.6 mph82%30.18 "Hg10 mi
9:20 PM59 °FClear.8 mph77%30.18 "Hg10 mi
8:50 PM61 °FPassing clouds.9 mph72%30.15 "HgN/A
8:20 PM63 °FPassing clouds.9 mph68%30.15 "HgN/A
7:50 PM64 °FPassing clouds.10 mph64%30.15 "HgN/A
7:20 PM64 °FPassing clouds.13 mph68%30.15 "HgN/A
6:50 PM64 °FPassing clouds.14 mph68%30.12 "HgN/A
6:20 PM66 °FScattered clouds.12 mph64%30.12 "HgN/A
5:50 PM66 °FScattered clouds.13 mph60%30.12 "HgN/A
5:20 PM66 °FPartly sunny.13 mph60%30.12 "HgN/A
Weather by CustomWeather, © 2016

See weather overviewHow to use our weather pages